TimeAKST,TemperatureF,Dew PointF,Humidity,Sea Level PressureIn,VisibilityMPH,Wind Direction,Wind SpeedMPH,Gust SpeedMPH,PrecipitationIn,Events,Conditions,WindDirDegrees,DateUTC
12:55 AM,50.0,28.6,44,29.67,10.0,NE,11.5,20.7,N/A,,Mostly Cloudy,40,2014-01-27 09:55:00
1:55 AM,49.8,29.5,46,29.65,10.0,NE,15.0,23.0,N/A,,Mostly Cloudy,50,2014-01-27 10:55:00
3:55 AM,51.6,31.6,46,29.59,10.0,NNE,9.2,17.3,N/A,,Mostly Cloudy,20,2014-01-27 12:55:00
4:55 AM,52.5,32.7,47,29.57,10.0,NE,10.4,25.3,N/A,,Scattered Clouds,40,2014-01-27 13:55:00
5:55 AM,52.5,32.9,47,29.55,10.0,NE,12.7,16.1,N/A,,Clear,40,2014-01-27 14:55:00
6:55 AM,53.8,32.4,44,29.53,10.0,NE,11.5,18.4,N/A,,Mostly Cloudy,50,2014-01-27 15:55:00
7:55 AM,54.9,31.6,41,29.50,10.0,NNE,16.1,23.0,N/A,,Mostly Cloudy,30,2014-01-27 16:55:00
8:55 AM,57.6,30.2,35,29.49,10.0,East,13.8,25.3,N/A,,Mostly Cloudy,90,2014-01-27 17:55:00
9:55 AM,54.7,30.2,39,29.48,10.0,ENE,15.0,-,N/A,,Clear,60,2014-01-27 18:55:00
10:55 AM,52.7,30.2,42,29.50,10.0,ENE,8.1,-,N/A,,Clear,70,2014-01-27 19:55:00
11:55 AM,53.4,28.8,39,29.47,10.0,ENE,9.2,-,N/A,,Clear,70,2014-01-27 20:55:00
12:55 PM,56.7,25.5,30,29.44,10.0,ENE,10.4,27.6,N/A,,Scattered Clouds,60,2014-01-27 21:55:00
1:55 PM,57.2,26.4,31,29.42,10.0,East,12.7,21.9,N/A,,Partly Cloudy,90,2014-01-27 22:55:00
2:55 PM,56.3,25.9,31,29.44,10.0,ESE,20.7,33.4,N/A,,Mostly Cloudy,120,2014-01-27 23:55:00
3:55 PM,52.7,27.3,38,29.46,10.0,ESE,24.2,34.5,N/A,,Clear,120,2014-01-28 00:55:00
4:55 PM,49.8,29.8,46,29.50,10.0,ESE,19.6,33.4,N/A,,Clear,120,2014-01-28 01:55:00
5:55 PM,46.2,30.2,54,29.56,10.0,Variable,2.3,-,N/A,,Partly Cloudy,0,2014-01-28 02:55:00
6:55 PM,46.2,28.9,51,29.57,10.0,SSE,8.1,-,N/A,,Partly Cloudy,160,2014-01-28 03:55:00
7:55 PM,44.2,28.8,55,29.62,10.0,Variable,6.9,-,N/A,,Partly Cloudy,0,2014-01-28 04:55:00
8:55 PM,43.5,28.8,56,29.66,10.0,Variable,2.3,-,N/A,,Partly Cloudy,0,2014-01-28 05:55:00
9:55 PM,40.1,29.7,66,29.68,10.0,Variable,2.3,-,N/A,,Partly Cloudy,0,2014-01-28 06:55:00
10:55 PM,38.1,30.4,74,29.72,10.0,NW,3.5,-,N/A,,Clear,310,2014-01-28 07:55:00
11:55 PM,37.2,29.8,75,29.73,10.0,Variable,3.5,-,N/A,,Partly Cloudy,0,2014-01-28 08:55:00